Location: Easthampton
(42.2676°N, 72.6690°W)
Time: 19:53:55
(UTC+00:00)

AO-91 - Pass Details

Date: 09 April 2023
Orbit: 446 x 775 km, 97.6° (Epoch: 30 May)

Event Time Altitude Azimuth Distance (km) Brightness Sun altitude
Rises 04:04:45 0° 1° (N) 3,270 ? -39.1°
Reaches altitude 10° 04:07:22 10° 350° (N) 2,341 ? -39.2°
Enters shadow 04:09:31 21° 331° (NNW) 1,715 ? -39.3°
